[[{"header":{"parameterUnit":"m.s-1","parameterCategory":1,"la1":30.2991,"la2":30.254,"lo1":-89.0895,"lo2":-89.0444,"dy":0.0017,"dx":0.0017,"nx":28,"ny":28,"refTime":"2024-08-13T21:00:00:Z","depth":0,"parameterNumber":2,"parameterNumberName":"U-component_of_WINDS"},"data":[0,0,0,0,0,0,0,0,0,0,0,0,0,0,0,0,0,0,0,0,0,0,0,0,0,0,0,0,0,0,0,0,0,0,0,0,0,0,0,0,0,0,0,0,0,0,0,0,0,0,0,0,0,0,0,0,0,0,4.13,4.1301,0,4.1341,4.1341,4.1342,4.1243,4.124,4.1237,4.1234,4.1276,4.128,4.1284,0,0,0,0,0,0,0,0,0,0,0,0,0,4.1136,4.114,4.13,4.1301,4.1301,4.1341,4.1341,4.1342,4.1243,4.124,4.1236,4.1232,4.1275,4.1279,4.1284,0,0,0,0,0,0,0,0,0,0,0,0,0,4.1195,4.1141,4.13,4.1257,4.1253,4.134,4.1341,4.1342,4.1244,4.1239,4.1235,4.123,4.1273,4.1279,4.1285,4.1416,0,0,4.1303,4.1306,0,0,0,0,0,0,0,0,4.1192,4.1202,4.1263,4.126,4.1256,4.1282,4.1299,4.1367,4.1245,4.1248,4.1234,4.1228,4.1282,4.1287,4.1305,4.1418,4.142,4.1304,4.1308,4.131,4.1312,0,0,0,0,0,0,0,4.1188,4.1199,4.1316,4.1264,4.126,4.1235,4.1238,4.1311,4.1291,4.1247,4.124,4.1246,4.1279,4.1299,4.1305,4.1421,4.1304,4.1309,4.1313,4.1315,4.164,4.1645,0,0,0,0,0,0,4.119,4.1197,4.1315,4.1317,4.1212,4.1242,4.1245,4.1278,4.1289,4.1287,4.125,4.1241,4.1291,4.1298,4.1306,4.1457,4.131,4.1316,4.1319,4.1635,4.1641,4.1646,0,0,0,0,0,0,4.1187,4.1201,4.1313,4.1255,4.1267,4.125,4.1287,4.1282,4.1301,4.1292,4.1287,4.1274,4.1288,4.1298,4.1389,4.1458,4.1319,4.1324,4.1629,4.1637,4.1644,4.1763,0,0,0,0,0,0,4.1182,4.1201,4.1251,4.1257,4.1271,4.1396,4.1292,4.1286,4.1312,4.1301,4.1313,4.1311,4.1285,4.138,4.1395,4.1463,4.1329,4.1623,4.1632,4.1641,4.1753,4.1774,4.1792,0,0,0,0,0,4.1177,4.1284,4.1254,4.1269,4.1333,4.14,4.1408,4.1375,4.1318,4.1368,4.1361,4.1311,4.1448,4.139,4.1406,4.1478,4.1618,4.163,4.1641,4.1744,4.177,4.1791,0,0,0,0,0,0,4.1287,4.1284,4.1251,4.1363,4.1382,4.1383,4.1445,4.1404,4.144,4.1428,4.1387,4.139,4.1489,4.1492,4.1428,4.1603,4.1523,4.1538,4.1597,4.1621,4.164,4.1636,4.1334,0,0,0,0,0,4.1325,4.1379,4.1373,4.1473,4.1484,4.1463,4.1491,4.1464,4.1483,4.1491,4.1491,4.1511,4.1558,4.159,4.1633,4.1754,4.1753,4.1811,4.183,4.1846,4.1859,4.1919,4.1943,4.1683,4.1683,4.1683,0,0,4.1403,4.1407,4.1445,4.1495,4.1507,4.1563,4.1471,4.1536,4.1576,4.1501,4.1585,4.1586,4.1606,4.1711,4.1758,4.1717,4.193,4.186,4.1873,4.1877,4.1933,4.1958,4.198,4.1691,4.1689,4.1688,0,0,4.1572,4.1583,4.1665,4.1678,4.1697,4.1682,4.1702,4.1709,4.1706,4.179,4.1734,4.1782,4.1866,4.188,4.1899,4.2073,4.2027,4.2088,4.2189,4.2248,4.2269,4.2287,4.2346,4.2368,4.2101,4.2102,4.2102,0,4.1667,4.175,4.1713,4.178,4.1803,4.1736,4.1818,4.1833,4.1866,4.1883,4.1837,4.1938,4.1947,4.2053,4.2095,4.2114,4.2133,4.2086,4.2269,4.2286,4.2303,4.2358,4.2381,4.2109,4.2108,4.2107,4.2107,0,4.1863,4.1921,4.1986,4.2017,4.2047,4.2122,4.2096,4.2131,4.2101,4.2091,4.2176,4.2184,4.2226,4.225,4.2223,4.2352,4.2326,4.2276,4.2194,4.2335,4.2386,4.2408,4.2119,4.2117,4.2114,4.2113,0,0,4.2103,4.2112,4.2136,4.2148,4.2163,4.2207,4.2278,4.2318,4.2348,4.2373,4.2429,4.2501,4.2453,4.2474,4.2448,4.2501,4.2634,4.2443,4.2443,4.2476,4.2773,4.2809,4.2834,4.2604,4.2608,4.2611,4.277,0,4.2269,4.2389,4.2358,4.2478,4.2529,4.2466,4.2527,4.2543,4.2535,4.2577,4.2568,4.2618,4.2553,4.2565,4.2615,4.2607,4.2692,4.2596,4.2655,4.2657,4.2649,4.2862,4.29,4.305,4.2791,4.2794,4.2797,0,4.2478,4.2508,4.2633,4.2636,4.2657,4.2713,4.2746,4.2788,4.2803,4.2794,4.2817,4.2779,4.2847,4.2767,4.286,4.2794,4.2817,4.2817,4.2822,4.2824,4.2734,4.2867,4.3098,4.3119,4.2829,4.2826,4.2824,0,4.2636,4.2709,4.2792,4.2805,4.2812,4.2852,4.2857,4.2868,4.2894,4.2923,4.2938,4.2976,4.2996,4.3025,4.2998,4.2942,4.3094,4.3012,4.3086,4.3087,4.3119,4.3117,4.3354,4.3139,4.3138,4.3138,4.3137,0,4.2823,4.2901,4.2863,4.2914,4.2999,4.2962,4.3047,4.3045,4.3054,4.3103,4.3052,4.3098,4.3061,4.3104,4.3083,4.3161,4.3172,4.3165,4.3158,4.3168,4.3168,4.318,4.3168,4.3144,4.3143,4.3141,4.314,0,4.3014,4.2992,4.3078,4.3077,4.3078,4.3141,4.314,4.3186,4.3174,4.3236,4.3248,4.3229,4.3277,4.3253,4.3304,4.329,4.339,4.337,4.3384,4.3378,4.3452,4.3444,4.3702,4.3733,4.3501,4.3504,4.3506,0,4.3133,4.3191,4.3196,4.3224,4.3232,4.3279,4.3304,4.3269,4.3297,4.3318,4.3362,4.3405,4.3437,4.3517,4.3507,4.3544,4.3524,4.3612,4.3529,4.3536,4.3521,4.3517,4.3521,4.3627,4.363,4.3632,4.3634,0,4.3345,4.3331,4.3368,4.3402,4.3433,4.3459,4.3479,4.3506,4.3471,4.3505,4.3553,4.3578,4.3628,4.3671,4.3703,4.3707,4.3665,4.3661,4.3679,4.3688,4.3693,4.3688,4.3426,4.3654,4.3652,4.3651,4.365,4.3649,4.3501,4.3549,4.3558,4.3602,4.3613,4.3633,4.3676,4.3668,4.3707,4.3745,4.3722,4.3777,4.3789,4.3828,4.3838,4.388,4.3845,4.3872,4.3879,4.3885,4.3894,4.3688,4.3886,4.3885,4.3885,4.3884,4.3884,0,4.3708,4.3711,4.3751,4.378,4.3814,4.3771,4.3791,4.3822,4.3871,4.3885,4.3918,4.3971,4.4012,4.4005,4.4042,4.4077,4.4058,4.4087,4.4083,4.4084,4.3925,4.3904,4.4102,4.4102,4.4102,4.4102,4.4101,4.4101,4.3819,4.3896,4.3883,4.3964,4.3966,4.4019,4.4034,4.4052,4.4063,4.4124,4.4158,4.4153,4.4158,4.4194,4.4229,4.4226,4.4241,4.4277,4.4266,4.4117,4.4096,4.4075,4.4054,4.4281,4.4281,4.4421,4.4423,4.4424]},{"header":{"parameterUnit":"m.s-1","parameterCategory":1,"la1":30.2991,"la2":30.254,"lo1":-89.0895,"lo2":-89.0444,"dy":0.0017,"dx":0.0017,"nx":28,"ny":28,"refTime":"2024-08-13T21:00:00:Z","depth":0,"parameterNumber":3,"parameterNumberName":"V-component_of_WINDS"},"data":[0,0,0,0,0,0,0,0,0,0,0,0,0,0,0,0,0,0,0,0,0,0,0,0,0,0,0,0,0,0,0,0,0,0,0,0,0,0,0,0,0,0,0,0,0,0,0,0,0,0,0,0,0,0,0,0,0,0,2.304,2.304,0,2.3086,2.3087,2.3087,2.3067,2.3066,2.3065,2.3064,2.311,2.3112,2.3114,0,0,0,0,0,0,0,0,0,0,0,0,0,2.293,2.2932,2.304,2.304,2.3041,2.3086,2.3087,2.3087,2.3068,2.3066,2.3065,2.3064,2.3109,2.3112,2.3114,0,0,0,0,0,0,0,0,0,0,0,0,0,2.2977,2.2933,2.3039,2.3036,2.3037,2.3086,2.3087,2.3087,2.3068,2.3066,2.3064,2.3063,2.3108,2.3111,2.3115,2.3169,0,0,2.3125,2.3127,0,0,0,0,0,0,0,0,2.2975,2.2981,2.3036,2.3037,2.3037,2.3069,2.3065,2.3115,2.3068,2.3056,2.3064,2.3062,2.3097,2.3102,2.3114,2.3171,2.3173,2.3125,2.3127,2.3129,2.313,0,0,0,0,0,0,0,2.2972,2.2979,2.3058,2.3037,2.3037,2.3032,2.3036,2.3074,2.3085,2.3057,2.3056,2.3061,2.3097,2.3111,2.3115,2.3174,2.3125,2.3128,2.313,2.3132,2.3276,2.3278,0,0,0,0,0,0,2.2969,2.2977,2.3056,2.3059,2.3001,2.3035,2.304,2.3061,2.3085,2.3087,2.3063,2.306,2.3106,2.3111,2.3116,2.3181,2.3129,2.3132,2.3134,2.3274,2.3277,2.3279,0,0,0,0,0,0,2.2966,2.2976,2.3055,2.3018,2.3027,2.3039,2.3061,2.3062,2.3076,2.309,2.3091,2.3075,2.3105,2.3112,2.3156,2.3182,2.3134,2.3137,2.3272,2.3275,2.3278,2.331,0,0,0,0,0,0,2.2963,2.2975,2.2997,2.3018,2.3029,2.3094,2.3063,2.3064,2.3082,2.3079,2.3101,2.3103,2.3104,2.3151,2.3159,2.3186,2.3139,2.327,2.3274,2.3277,2.3307,2.3314,2.3319,0,0,0,0,0,2.2959,2.3004,2.2998,2.3008,2.3057,2.3096,2.3102,2.3103,2.3084,2.3105,2.3114,2.3102,2.3178,2.3156,2.3165,2.3193,2.3268,2.3273,2.3276,2.3304,2.3312,2.3319,0,0,0,0,0,0,2.2985,2.3007,2.3001,2.3054,2.3073,2.3093,2.3119,2.3112,2.3136,2.3133,2.3132,2.3137,2.3182,2.3192,2.3167,2.3246,2.322,2.3226,2.3238,2.3246,2.3252,2.3248,2.3142,0,0,0,0,0,2.2997,2.3028,2.3045,2.309,2.31,2.3108,2.3125,2.3124,2.3144,2.3152,2.3164,2.3183,2.321,2.3229,2.3255,2.3308,2.3312,2.3331,2.3338,2.3343,2.3348,2.3375,2.3383,2.3292,2.3292,2.3292,0,0,2.3022,2.3038,2.3057,2.3096,2.3111,2.3141,2.3115,2.3149,2.3172,2.3157,2.3199,2.3208,2.3229,2.3278,2.33,2.3287,2.3374,2.3348,2.3352,2.3354,2.338,2.3389,2.3396,2.3295,2.3294,2.3294,0,0,2.3083,2.3099,2.3137,2.3152,2.3175,2.318,2.3189,2.321,2.3215,2.3258,2.3247,2.3273,2.3321,2.3336,2.335,2.3415,2.3404,2.3423,2.3456,2.3483,2.349,2.3496,2.3518,2.3526,2.3428,2.3429,2.3429,0,2.3111,2.3158,2.3158,2.3192,2.3209,2.3197,2.3235,2.325,2.328,2.3291,2.3277,2.3336,2.3349,2.34,2.3416,2.3428,2.3437,2.3421,2.3489,2.3495,2.3501,2.3522,2.353,2.3431,2.343,2.343,2.343,0,2.319,2.3222,2.325,2.328,2.33,2.3336,2.3341,2.336,2.3357,2.3363,2.3405,2.3421,2.3449,2.3461,2.3458,2.3511,2.3503,2.3489,2.3463,2.3512,2.3531,2.3539,2.3434,2.3433,2.3432,2.3432,0,0,2.3269,2.3297,2.3307,2.332,2.3344,2.3368,2.3403,2.3431,2.3448,2.3468,2.3497,2.3537,2.3524,2.354,2.3538,2.3561,2.361,2.3544,2.3545,2.3555,2.3667,2.3677,2.3686,2.3603,2.3605,2.3606,2.3665,0,2.333,2.3392,2.3393,2.3449,2.3478,2.3467,2.3497,2.3514,2.352,2.3545,2.3551,2.3579,2.356,2.3569,2.3592,2.3599,2.3632,2.3595,2.3628,2.3629,2.3623,2.3697,2.3707,2.3762,2.3673,2.3674,2.3675,0,2.3411,2.3434,2.3494,2.3512,2.3524,2.3551,2.3576,2.36,2.3619,2.3621,2.3638,2.3633,2.3667,2.364,2.3686,2.3661,2.3675,2.368,2.3682,2.3685,2.3655,2.37,2.378,2.3788,2.3687,2.3686,2.3685,0,2.3461,2.3507,2.3548,2.3559,2.3582,2.3601,2.3611,2.3628,2.3644,2.3666,2.3676,2.3702,2.3715,2.3734,2.3735,2.3716,2.3781,2.3755,2.3783,2.3783,2.3797,2.3796,2.3879,2.3807,2.3807,2.3807,2.3807,0,2.3529,2.3565,2.3571,2.3596,2.3636,2.3635,2.3675,2.3683,2.3698,2.3723,2.3715,2.3739,2.3739,2.3763,2.3764,2.3801,2.3808,2.381,2.3809,2.381,2.3809,2.3818,2.3814,2.3809,2.3808,2.3808,2.3808,0,2.3591,2.3596,2.364,2.3658,2.3663,2.3691,2.3706,2.3729,2.3734,2.3766,2.3774,2.3781,2.3809,2.3812,2.3844,2.3845,2.3889,2.3885,2.3883,2.3882,2.3909,2.3906,2.4,2.4012,2.3933,2.3934,2.3935,0,2.3634,2.3662,2.3682,2.3699,2.371,2.3737,2.3754,2.3754,2.3771,2.3794,2.3814,2.3841,2.3863,2.3907,2.3915,2.3939,2.3935,2.3966,2.3938,2.3938,2.3934,2.3932,2.3934,2.3971,2.3972,2.3973,2.3973,0,2.3709,2.371,2.3734,2.376,2.378,2.38,2.3818,2.3832,2.3834,2.3854,2.3883,2.3899,2.3932,2.3958,2.3982,2.3991,2.3982,2.3982,2.3989,2.399,2.3987,2.3988,2.3896,2.398,2.3979,2.3979,2.3978,2.3978,2.3762,2.3785,2.3803,2.383,2.3844,2.3861,2.3884,2.3891,2.3915,2.3942,2.394,2.3971,2.3987,2.4018,2.4029,2.4052,2.4042,2.4053,2.4056,2.4058,2.406,2.3984,2.4057,2.4057,2.4056,2.4056,2.4056,0,2.3835,2.3845,2.3871,2.3897,2.3918,2.3908,2.3928,2.3946,2.3973,2.3989,2.4011,2.4042,2.4068,2.4077,2.4101,2.4118,2.4114,2.4124,2.4122,2.4124,2.4069,2.406,2.4126,2.4126,2.4126,2.4126,2.4126,2.4126,2.3875,2.3914,2.3917,2.3962,2.3972,2.4002,2.4014,2.4029,2.4042,2.4078,2.4099,2.4105,2.4118,2.4143,2.4165,2.4167,2.4176,2.4187,2.4187,2.4135,2.4128,2.4121,2.4112,2.4189,2.4189,2.424,2.4241,2.4241]}]]